Location: Stigler
(35.2540°N, 95.1230°W)
Time: 21:16:29
(UTC-05:00)

Daily predictions for brighter satellites

Satellite Brightness Start Highest point End
(mag) Time Altitude Azimuth Time Altitude Azimuth Time Altitude Azimuth
Meteor 1-29 2.9 20:11:18 10° NNE 20:14:46 79° ESE 20:18:14 10° S
HJ-1C 3.3 20:11:56 10° SSE 20:15:10 68° ENE 20:18:28 10° N
Cosmos 2123 Rocket 4.5 20:12:28 10° N 20:18:11 39° ENE 20:23:54 10° SE
Resurs 1-3 3.7 20:16:01 10° SSE 20:20:19 59° ENE 20:24:38 10° N
Cosmos 2219 4.2 20:20:05 10° NNW 20:25:30 51° WSW 20:30:54 10° S
Cosmos 1777 Rocket 4.1 20:26:12 10° NNW 20:31:29 90° E 20:36:45 10° SSE
Cosmos 1697 Rocket 3.5 20:27:41 10° SSE 20:32:22 28° ESE 20:37:05 10° NE
OAO 2 Rocket 3.3 20:28:21 10° WSW 20:33:20 77° S 20:38:26 10° E
Cosmos 2278 3.8 20:34:00 10° SSW 20:39:41 84° WNW 20:45:24 10° NNE
Cosmos 1934 Rocket 4.0 20:35:14 10° S 20:41:21 90° NW 20:47:35 10° N
NOSS 3-4 (A) 3.9 20:35:03 10° NNW 20:42:11 78° ENE 20:49:41 10° SE
Resurs 01 Rocket 2.4 20:37:57 10° S 20:42:17 56° W 20:46:39 10° NNW
NOSS 3-4 (C) 3.9 20:35:11 10° NNW 20:42:18 77° ENE 20:49:48 10° SE
Delta 2 Rocket 4.2 20:37:15 10° W 20:42:59 70° SSW 20:47:21 15° ESE
Cosmos 1544 Rocket 4.2 20:40:24 10° SSW 20:44:42 61° W 20:49:05 10° N
Meteor 2-4 Rocket 4.3 20:39:10 10° NNW 20:44:59 66° W 20:50:51 10° S
ALOS 2.2 20:42:46 10° SSE 20:47:24 70° ENE 20:52:03 10° N
Cosmos 1975 3.1 20:46:33 10° SSE 20:50:29 48° E 20:54:27 10° NNE
H-2A R/B 2.8 20:46:48 10° SSE 20:50:35 59° ENE 20:54:27 10° N
CZ-4B DEB 3.1 20:49:46 10° S 20:53:01 69° W 20:56:17 10° NNW
Cosmos 2369 4.0 20:48:10 10° SSW 20:53:48 72° WNW 20:59:30 10° NNE
EO 1 Delta rocket 4.0 20:49:30 10° NNE 20:54:18 78° E 20:59:59 10° S
USA 186 1.7 20:52:39 14° SSE 20:55:11 54° ENE 20:58:05 10° N
Cosmos 1980 Rocket 3.1 20:50:52 10° SSE 20:55:26 26° ESE 21:00:04 10° NE
Lacrosse 5 rocket 1.5 20:56:30 10° NNW 21:00:04 45° NE 21:01:42 26° ESE
Envisat 4.1 21:00:25 20° ESE 21:02:22 25° ENE 21:06:29 10° NNE
Okean 2 4.3 20:59:12 10° NNW 21:03:13 49° W 21:07:12 10° SSW
OTV 4 0.3 21:01:38 10° WNW 21:04:36 76° SSW 21:05:33 39° ESE
Iridium 4 Rocket 3.4 21:03:21 10° N 21:08:13 54° E 21:11:35 17° SSE
CZ-2D R/B 3.6 21:07:20 10° S 21:11:09 64° W 21:15:01 10° NNW
FENGYUN 3A 4.0 21:10:54 10° S 21:16:12 65° WSW 21:21:31 10° NNW
Meteor 1-12 Rocket 4.4 21:11:37 10° SSW 21:17:19 76° W 21:23:09 10° N
Tiangong 1 3.1 21:15:47 10° NW 21:18:15 21° N 21:19:22 17° NE
Hubble Space Telescope 3.0 21:16:24 10° SW 21:18:35 14° SSW 21:19:50 13° S
Cosmos 1656 3.8 21:14:33 10° SSW 21:20:10 77° WNW 21:25:46 10° NNE
Cosmos 1500 3.0 21:20:59 15° S 21:24:00 82° E 21:27:47 10° N
Cosmos 2173 Rocket 4.1 21:19:16 10° SSE 21:25:26 54° E 21:31:35 10° NNE
Cosmos 1939 Rocket 3.3 21:25:53 41° E 21:26:24 43° ENE 21:30:21 10° N
Cosmos 2150 Rocket 4.1 21:22:27 10° N 21:27:30 55° ENE 21:29:13 37° SE
Cosmos 2227 Rocket 2.7 21:22:02 10° NNW 21:27:35 58° WSW 21:32:24 14° S
Cosmos 1825 Rocket 4.4 21:25:55 10° NNE 21:29:39 33° ENE 21:29:39 33° ENE
ERS-1 Rocket 2.9 21:28:09 34° SE 21:30:16 63° ENE 21:35:14 10° N
Cosmos 1461 4.1 21:30:54 10° NW 21:34:34 35° WSW 21:36:30 22° SSW
Lacrosse 5 2.6 21:30:15 10° NNW 21:34:58 37° NE 21:36:04 33° ENE
Cosmos 1340 4.2 21:34:46 10° NNE 21:36:49 24° NE 21:36:49 24° NE
Cosmos 2100 Rocket 3.9 21:32:50 10° S 21:39:08 77° E 21:45:22 10° N
YAOGAN 11 4.1 21:37:57 39° SSE 21:39:36 89° SW 21:44:06 10° NNW
Cosmos 2360 4.4 21:38:33 40° SE 21:39:40 45° ESE 21:45:06 10° NE
SPOT 5 3.6 21:39:46 35° ENE 21:39:49 35° ENE 21:44:14 10° N
H-2A R/B 2.8 21:40:46 35° NE 21:40:46 35° NE 21:43:57 10° N
DELTA 2 R/B (1) 3.5 21:35:09 10° WNW 21:40:45 84° NNE 21:42:25 47° ESE
Cosmos 1763 Rocket 3.4 21:41:43 48° SE 21:42:38 55° ESE 21:47:35 10° NNE
Cosmos 2297 Rocket 2.6 21:37:18 10° NNW 21:42:53 61° WSW 21:46:11 25° S
Cosmos 2061 Rocket 3.9 21:40:15 11° S 21:46:20 80° E 21:52:35 10° N
Cosmos 1898 Rocket 3.4 21:41:12 10° NNW 21:46:31 89° ENE 21:48:07 46° SSE
MetOp-A 4.4 21:54:39 46° ENE 21:54:40 46° ENE 21:59:47 10° N
CZ-4 DEB 4.1 21:55:43 38° WNW 21:55:43 38° WNW 21:58:15 10° NNW
Nimbus 7 Rocket 4.3 21:49:40 10° NNE 21:55:44 74° ESE 21:58:48 31° S
RESURS DK-1 2.7 21:52:58 10° NNW 21:56:25 55° NNE 21:56:25 55° NNE
Cosmos 2084 3.5 21:56:41 10° NW 22:00:33 71° W 22:00:33 71° W
deb Chang Zheng 4 3.5 21:56:21 10° NNE 22:00:40 83° NNE 22:00:40 83° NNE
Cosmos 1743 3.2 22:01:44 60° WNW 22:01:44 60° WNW 22:05:26 10° N
Cosmos 841 Rocket 3.3 22:04:54 78° SE 22:05:08 81° ESE 22:10:23 10° NNE
Terra 4.3 22:11:26 10° NE 22:11:26 10° NE 22:11:30 10° NE
CZ-3 Stage 3 4.3 21:13:23 10° W 22:10:48 55° SSW 22:13:39 40° SSE
Cosmos 1459 Rocket 4.3 22:05:22 11° SSW 22:11:06 61° W 22:17:08 10° N
Cosmos 1725 Rocket 4.0 22:12:55 61° E 22:12:55 61° E 22:18:47 10° NNE
BREEZE-M DEB (TANK) 4.0 22:10:04 10° NNW 22:11:28 25° N 22:11:28 25° N
Cosmos 1697 Rocket 4.2 22:11:02 10° SW 22:16:09 35° WNW 22:21:17 10° N
OAO 2 Rocket 3.5 22:13:05 10° W 22:17:25 66° W 22:17:25 66° W
Milstar 3 Cent rocket 4.0 21:58:33 10° W 22:18:58 61° SSW 22:22:31 46° SE
Cosmos 2058 Rocket 4.5 22:22:16 33° N 22:22:16 33° N 22:24:45 10° N
SL-16 R/B 3.9 22:28:05 21° NE 22:28:05 21° NE 22:29:56 10° NNE
ASTEX 1 3.9 22:27:54 10° N 22:32:13 58° NW 22:32:13 58° NW
ARGOS 3.9 22:35:03 45° NNE 22:35:03 45° NNE 22:38:54 10° N
BREEZE-M DEB (TANK) 4.5 22:24:13 10° W 22:35:58 44° NNW 22:38:00 29° NNE
Lacrosse 5 rocket 4.2 22:37:22 10° W 22:37:26 10° W 22:37:26 10° W
Cosmos 1980 Rocket 3.5 22:33:59 10° SW 22:39:11 37° WNW 22:44:28 10° N
Envisat 4.3 22:40:38 31° WSW 22:41:11 32° W 22:45:44 10° NW
H-2A R/B 3.9 22:58:30 23° N 22:58:30 23° N 23:00:24 10° N
Cosmos 2263 Rocket 3.8 23:04:31 10° N 23:07:11 26° N 23:07:11 26° N
Cosmos 2322 Rocket 3.7 23:14:22 30° N 23:14:22 30° N 23:17:23 10° N
Lacrosse 5 4.1 23:13:24 10° WNW 23:15:16 20° WNW 23:15:16 20° WNW
USA 215 4.3 23:50:35 41° NNW 23:50:35 41° NNW 23:54:41 10° NW
